Wind_Speed
16 14 13 11 8 5 4 3 3 3 5 6 6 7 9 8 7 7 7 7 8 8 8 8 9 10 11 11 11 11 10 10
17 15 12 9 7 5 4 4 4 3 3 4 5 6 8 9 9 9 9 8 9 8 8 8 8 8 11 9 11 12 11 11
18 16 13 10 7 7 7 6 5 5 4 3 2 2 3 5 5 6 7 8 9 10 11 11 11 11 11 13 11 11 10 10
20 17 14 11 10 10 9 8 5 5 5 3 2 1 1 2 3 4 5 7 8 9 11 12 13 14 15 16 15 14 12 12
22 19 16 14 14 12 10 9 7 5 4 3 2 1 1 1 2 3 4 5 7 8 9 10 11 12 13 14 15 16 16 16
24 21 18 18 17 16 12 8 6 5 4 2 2 2 3 3 3 3 4 5 6 7 7 8 9 10 11 11 13 14 14 17
24 22 20 20 18 16 13 11 7 4 3 2 2 3 3 4 5 6 6 7 6 7 7 8 8 9 9 9 10 11 13 14
26 25 24 22 19 16 12 10 8 5 2 1 2 3 4 5 5 6 7 8 10 10 10 10 10 10 10 10 10 10 11 12
28 26 25 23 21 17 13 11 8 5 3 1 1 3 4 5 6 6 8 10 11 11 11 11 11 11 11 11 11 11 10 9
30 28 26 24 21 18 15 13 9 6 4 3 1 2 3 4 5 7 9 10 12 13 13 14 14 14 13 11 10 8 7 6
32 29 27 26 24 20 17 13 10 7 5 3 1 2 3 4 6 8 10 11 12 15 16 17 17 16 15 12 8 6 4 5
32 30 28 27 26 23 19 16 13 9 7 4 1 0 2 4 6 8 9 12 14 16 18 19 19 18 16 11 6 4 2 5
35 33 31 31 29 27 24 20 16 12 7 4 2 0 2 4 6 8 10 13 16 17 17 18 17 18 16 11 6 5 3 12
38 34 32 31 28 25 23 21 17 12 10 7 4 1 1 3 5 7 10 12 14 16 18 18 19 18 17 12 6 4 1 15
40 35 31 28 27 26 25 22 18 15 12 8 5 2 2 4 6 9 11 13 15 16 17 17 17 17 16 12 5 4 22 3
40 35 31 29 29 28 26 24 21 17 13 10 6 3 2 4 7 10 12 14 14 15 14 14 15 16 14 14 9 7 6 13
39 34 32 30 30 27 25 23 19 17 13 9 6 3 3 5 8 11 13 14 14 13 13 14 15 15 16 14 13 11 1 11
37 34 32 30 28 26 24 23 22 19 14 11 7 4 3 6 8 10 12 13 13 13 12 12 13 13 13 13 14 13 15 12
36 33 31 29 27 25 24 22 19 16 13 10 7 5 4 5 7 8 9 10 12 12 12 12 13 13 14 13 13 13 14 16
35 31 29 28 27 28 26 22 20 16 13 11 7 5 4 5 6 7 9 9 9 10 11 11 12 13 12 12 12 13 14 14
Wind_Direction
184 183 183 182 177 172 184 196 214 216 247 255 251 256 261 262 266 273 274 276 279 282 279 275 276 277 275 271 270 268 271 271
186 183 183 185 181 179 189 197 195 179 211 241 249 255 260 264 266 267 269 272 276 277 278 277 274 277 281 274 270 270 269 267
184 186 187 189 184 178 172 173 165 151 144 157 198 236 261 271 273 275 279 281 281 281 280 276 275 274 270 282 283 275 273 273
189 191 191 190 180 177 173 168 162 146 134 131 149 186 243 289 292 292 295 293 293 293 292 289 285 278 274 275 275 271 267 264
196 195 191 186 180 179 178 172 164 149 127 126 126 29 25 356 331 326 319 317 312 309 304 299 297 294 290 287 281 271 260 257
199 195 193 188 185 184 181 179 165 156 143 116 72 28 17 3 353 358 352 348 346 343 335 329 326 320 311 305 296 288 278 262
200 198 194 195 193 190 185 179 176 158 123 98 60 27 21 21 8 5 2 1 359 3 358 350 345 337 327 321 312 302 292 281
202 200 196 197 199 199 190 184 187 187 161 102 54 30 27 24 17 11 8 8 9 11 11 7 3 358 346 336 325 314 304 294
205 202 199 200 203 202 195 191 187 190 178 142 43 31 28 25 18 16 14 16 15 17 12 11 8 8 1 351 341 329 316 309
205 203 201 202 205 202 198 193 193 187 165 145 122 60 48 35 28 26 25 19 12 9 9 5 4 3 5 359 349 341 329 323
206 203 202 203 203 201 200 196 195 189 182 173 105 50 39 30 29 30 26 16 7 5 2 359 358 0 0 358 353 346 336 353
208 204 202 202 201 199 197 198 199 197 199 193 171 50 29 31 29 27 18 10 4 3 0 356 357 2 7 7 21 2 311 354
207 203 201 203 202 200 198 198 193 194 191 186 182 172 20 16 15 12 8 4 3 360 358 356 354 358 359 20 20 14 167 348
204 203 204 205 209 205 201 195 187 191 188 192 199 226 346 2 7 6 6 3 0 357 357 359 360 5 11 10 2 343 210 321
204 202 202 202 201 197 192 191 190 188 190 199 202 226 328 350 358 0 360 358 358 358 358 1 5 8 13 28 25 341 329 264
200 197 197 197 200 203 205 202 196 191 194 199 208 233 287 334 349 354 355 358 358 1 2 3 5 10 16 27 32 350 345 319
194 193 193 194 197 203 204 200 196 192 191 200 208 226 298 334 346 351 355 359 2 3 1 3 7 11 17 15 8 21 248 319
188 186 186 191 194 198 205 203 195 189 191 200 207 227 291 328 341 348 357 358 1 359 357 3 10 11 10 6 1 355 335 335
180 181 181 185 188 190 195 200 196 189 193 202 216 231 267 309 332 349 357 0 357 354 360 5 6 3 5 3 358 346 336 331
174 177 178 178 182 183 184 191 190 188 196 199 210 231 266 305 333 352 354 357 357 352 355 359 0 360 0 358 355 347 342 350
Height
1504 1506 1507 1508 1508 1509 1511 1511 1513 1512 1514 1515 1515 1516 1517 1516 1515 1516 1515 1515 1516 1516 1517 1517 1517 1517 1517 1517 1517 1517 1518 1518
1502 1504 1506 1507 1508 1509 1510 1511 1512 1511 1512 1514 1514 1514 1516 1515 1514 1514 1514 1513 1514 1516 1516 1515 1515 1514 1514 1514 1514 1515 1515 1516
1500 1502 1504 1506 1508 1508 1510 1511 1511 1511 1511 1512 1513 1513 1514 1514 1513 1513 1513 1512 1513 1513 1514 1514 1513 1512 1512 1511 1511 1512 1513 1513
1498 1500 1502 1505 1507 1509 1509 1510 1513 1512 1511 1512 1513 1513 1513 1513 1512 1512 1511 1511 1510 1511 1511 1511 1511 1510 1509 1509 1507 1508 1509 1510
1496 1499 1500 1502 1504 1508 1511 1510 1511 1513 1512 1512 1512 1513 1512 1512 1512 1511 1510 1510 1509 1509 1508 1508 1508 1508 1507 1506 1505 1504 1505 1506
1494 1497 1500 1501 1502 1504 1506 1511 1511 1511 1511 1512 1511 1512 1512 1511 1511 1510 1510 1509 1508 1508 1507 1506 1505 1504 1505 1503 1503 1502 1502 1502
1493 1496 1499 1501 1502 1504 1505 1506 1510 1511 1511 1510 1510 1510 1510 1510 1510 1509 1508 1508 1507 1506 1506 1505 1504 1502 1501 1500 1500 1499 1499 1499
1491 1494 1496 1499 1502 1504 1504 1506 1508 1509 1510 1509 1509 1509 1509 1509 1508 1507 1507 1507 1506 1505 1504 1504 1503 1501 1500 1498 1497 1496 1495 1495
1488 1492 1495 1498 1500 1502 1503 1505 1507 1508 1508 1508 1508 1508 1508 1508 1508 1506 1506 1506 1505 1503 1503 1502 1502 1500 1498 1497 1495 1494 1492 1492
1484 1489 1493 1496 1499 1501 1502 1502 1505 1506 1507 1506 1506 1506 1506 1506 1506 1505 1504 1505 1505 1503 1503 1501 1499 1498 1496 1494 1493 1491 1490 1489
1481 1486 1490 1493 1495 1498 1499 1501 1502 1503 1505 1505 1505 1506 1505 1504 1504 1503 1503 1503 1502 1500 1499 1498 1497 1496 1493 1491 1491 1490 1488 1488
1479 1483 1487 1490 1492 1493 1495 1498 1499 1500 1501 1502 1502 1503 1504 1503 1503 1502 1502 1501 1500 1498 1496 1494 1493 1493 1492 1489 1487 1487 1487 1486
1475 1478 1482 1485 1487 1488 1490 1493 1496 1498 1500 1502 1502 1502 1502 1503 1502 1502 1500 1499 1498 1497 1495 1492 1490 1489 1489 1487 1487 1485 1484 1485
1469 1475 1478 1482 1486 1487 1489 1491 1493 1496 1497 1499 1500 1501 1500 1500 1500 1499 1499 1498 1496 1495 1493 1490 1487 1486 1485 1483 1483 1486 1485 1482
1463 1470 1475 1480 1483 1485 1486 1488 1491 1493 1496 1497 1498 1499 1500 1500 1499 1498 1497 1495 1493 1492 1490 1489 1486 1485 1483 1484 1482 1483 1481 1481
1460 1466 1470 1476 1479 1482 1483 1484 1487 1490 1492 1493 1495 1497 1497 1498 1498 1497 1496 1494 1492 1490 1489 1486 1486 1484 1483 1482 1483 1482 1482 1477
1456 1461 1466 1470 1474 1477 1480 1482 1486 1489 1491 1494 1494 1494 1495 1495 1495 1495 1493 1492 1490 1488 1486 1485 1483 1483 1482 1481 1481 1482 1481 1480
1452 1458 1462 1469 1473 1475 1477 1480 1482 1484 1488 1491 1492 1491 1492 1493 1492 1492 1491 1490 1490 1487 1486 1483 1483 1483 1482 1481 1479 1480 1479 1477
1449 1455 1459 1465 1469 1473 1475 1480 1482 1482 1485 1489 1491 1490 1490 1491 1490 1491 1490 1488 1488 1487 1485 1483 1481 1481 1480 1481 1479 1479 1477 1475
1446 1452 1458 1463 1466 1469 1471 1476 1478 1478 1483 1486 1488 1490 1489 1489 1489 1488 1487 1486 1486 1486 1484 1484 1482 1480 1479 1479 1478 1477 1475 1473